XM-3 (RHYTHM)

Last updated on Sat Dec 13 2025 00:02:46 GMT+0000 (Coordinated Universal Time)

1 28626U 05008A 25346.08541939 -.00000171 00000+0 00000+0 0 9994 2 28626 0.1732 81.4641 0001522 269.4596 238.2962 0.98952726 40749
UTC large
Height (km)
Speed (km/s)
/
Latitude / Longitude
Inclination (degrees)
Orbital Period (minutes)
Azimuth
Elevation
Range (km)
Doppler Factor

Next 0 passes for location: London (51.5072 / 0.1276)

Sorry there are no passes over London.